Menomonie, WI

4:46 AM CST on December 16, 2019 (GMT -0600)
Menomonie

Weather History for KLUM - October, 2019

Change the Weather History Date:

Tuesday, October 29, 2019

  Actual Average (KEAU) Record (KEAU)
Temperature  
Mean Temperature 30 °F -  
Max Temperature 41 °F 52 °F 77 °F (1950)
Min Temperature 20 °F 31 °F 10 °F (1895)
Degree Days  
Heating Degree Days 34    
Moisture  
Dew Point 21 °F    
Average Humidity 73    
Maximum Humidity 98    
Minimum Humidity 46    
Precipitation  
Precipitation 0.00 in - - ()
Sea Level Pressure  
Sea Level Pressure 30.21 in    
Wind  
Wind Speed 5 mph (WSW)    
Max Wind Speed 13 mph    
Max Gust Speed -    
Visibility 10 miles    
Events      
Averages and records for this station are not official NWS values.
T = Trace of Precipitation, MM = Missing Value Source: NWS Daily Summary

Daily Weather History Graph

Daily Weather History Graph

Search for Another Location

Airport or City:

Astronomy

Oct. 29, 2019 Rise Set
Actual Time 7:41 AM CDT 6:00 PM CDT
Civil Twilight 7:11 AM CDT 6:30 PM CDT
Nautical Twilight 6:36 AM CDT 7:05 PM CDT
Astronomical Twilight 6:02 AM CDT 7:39 PM CDT
Moon 9:17 AM CDT (10/29) 7:21 PM CDT (10/29)
Length of Visible Light 11h 19m
Length of Day
10h 19m
Waxing Crescent, 3% of the Moon is Illuminated
Oct 29
Waxing Crescent
Nov 4
First Quarter
Nov 12
Full
Nov 19
Last Quarter
Nov 26
New

Hourly Weather History & Observations

Time (CDT) Temp. Windchill Dew Point Humidity Pressure Visibility Wind Dir Wind Speed Gust Speed Precip Events Conditions
12:15 AM 27.1 °F 21.8 °F 25.7 °F 94% 30.13 in 10.0 mi SSW 4.6 mph - N/A   Overcast
12:35 AM 27.1 °F 23.2 °F 25.3 °F 93% 30.13 in 10.0 mi WSW 3.5 mph - N/A   Overcast
12:55 AM 27.3 °F - 25.5 °F 93% 30.13 in 10.0 mi Calm Calm - N/A   Overcast
1:15 AM 27.3 °F 22.0 °F 25.5 °F 93% 30.14 in 10.0 mi SW 4.6 mph - N/A   Overcast
1:35 AM 27.3 °F 22.0 °F 25.5 °F 93% 30.14 in 10.0 mi SW 4.6 mph - N/A   Overcast
1:55 AM 27.1 °F 23.2 °F 25.3 °F 93% 30.14 in 10.0 mi SW 3.5 mph - N/A   Overcast
2:15 AM 27.0 °F 23.0 °F 24.8 °F 92% 30.14 in 10.0 mi SW 3.5 mph - N/A   Overcast
2:35 AM 27.0 °F 23.0 °F 24.3 °F 90% 30.14 in 10.0 mi WSW 3.5 mph - N/A   Overcast
2:55 AM 26.6 °F 21.2 °F 23.4 °F 88% 30.14 in 10.0 mi WSW 4.6 mph - N/A   Mostly Cloudy
3:15 AM 26.1 °F 19.4 °F 22.8 °F 88% 30.13 in 10.0 mi WSW 5.8 mph - N/A   Scattered Clouds
3:35 AM 25.7 °F 20.1 °F 22.3 °F 87% 30.11 in 10.0 mi WSW 4.6 mph - N/A   Clear
3:55 AM 25.0 °F 20.7 °F 21.9 °F 88% 30.11 in 10.0 mi West 3.5 mph - N/A   Clear
4:15 AM 24.8 °F - 21.7 °F 88% 30.12 in 10.0 mi Calm Calm - N/A   Clear
4:35 AM 22.5 °F - 20.1 °F 91% 30.13 in 10.0 mi Calm Calm - N/A   Clear
4:55 AM 21.9 °F 15.7 °F 20.1 °F 93% 30.14 in 10.0 mi SW 4.6 mph - N/A   Clear
5:15 AM 23.0 °F 15.8 °F 21.4 °F 94% 30.15 in 10.0 mi WSW 5.8 mph - N/A   Clear
5:35 AM 22.6 °F 15.3 °F 21.0 °F 93% 30.16 in 10.0 mi WSW 5.8 mph - N/A   Clear
5:55 AM 22.5 °F 17.8 °F 20.7 °F 93% 30.15 in 10.0 mi West 3.5 mph - N/A   Clear
6:15 AM 21.4 °F - 20.1 °F 95% 30.16 in 10.0 mi Calm Calm - N/A   Clear
6:35 AM 21.4 °F - 20.5 °F 96% 30.17 in 10.0 mi Calm Calm - N/A   Clear
6:55 AM 21.2 °F - 20.1 °F 96% 30.16 in 10.0 mi Calm Calm - N/A   Clear
7:15 AM 21.9 °F - 21.0 °F 96% 30.17 in 10.0 mi Calm Calm - N/A   Clear
7:35 AM 20.8 °F - 20.1 °F 97% 30.17 in 10.0 mi Calm Calm - N/A   Clear
7:55 AM 21.2 °F - 20.7 °F 98% 30.17 in 10.0 mi Calm Calm - N/A   Clear
8:35 AM 21.7 °F - 21.0 °F 97% 30.18 in 10.0 mi Calm Calm - N/A   Clear
8:55 AM 22.5 °F - 21.6 °F 96% 30.18 in 10.0 mi Calm Calm - N/A   Clear
9:15 AM 24.8 °F - 23.7 °F 96% 30.19 in 10.0 mi Calm Calm - N/A   Clear
9:35 AM 26.4 °F 22.4 °F 23.9 °F 90% 30.20 in 10.0 mi SW 3.5 mph - N/A   Clear
9:55 AM 28.6 °F 23.5 °F 24.1 °F 83% 30.20 in 10.0 mi WSW 4.6 mph - N/A   Clear
10:15 AM 29.7 °F 24.7 °F 22.8 °F 76% 30.20 in 10.0 mi WSW 4.6 mph - N/A   Clear
10:35 AM 30.9 °F 27.5 °F 23.4 °F 74% 30.21 in 10.0 mi WSW 3.5 mph - N/A   Clear
10:55 AM 32.0 °F 26.4 °F 23.4 °F 70% 30.22 in 10.0 mi West 5.8 mph - N/A   Clear
11:15 AM 33.1 °F 27.7 °F 23.4 °F 67% 30.23 in 10.0 mi SW 5.8 mph - N/A   Clear
11:35 AM 34.3 °F 30.2 °F 21.6 °F 60% 30.23 in 10.0 mi WSW 4.6 mph - N/A   Clear
11:55 AM 36.1 °F 32.3 °F 21.6 °F 56% 30.23 in 10.0 mi WSW 4.6 mph - N/A   Clear
12:15 PM 37.2 °F 30.6 °F 20.8 °F 52% 30.23 in 10.0 mi SW 9.2 mph - N/A   Clear
12:55 PM 38.8 °F 33.8 °F 20.7 °F 48% 30.23 in 10.0 mi West 6.9 mph - N/A   Clear
1:15 PM 37.8 °F 31.3 °F 19.6 °F 48% 30.23 in 10.0 mi WSW 9.2 mph - N/A   Scattered Clouds
1:35 PM 39.6 °F 33.0 °F 20.5 °F 46% 30.22 in 10.0 mi WSW 10.4 mph - N/A   Scattered Clouds
1:55 PM 39.9 °F 32.9 °F 22.1 °F 49% 30.23 in 10.0 mi WSW 11.5 mph - N/A   Scattered Clouds
2:15 PM 41.7 °F 35.2 °F 22.5 °F 46% 30.22 in 10.0 mi SW 11.5 mph - N/A   Mostly Cloudy
2:35 PM 38.7 °F 31.4 °F 21.9 °F 51% 30.22 in 10.0 mi West 11.5 mph - N/A   Mostly Cloudy
2:55 PM 39.7 °F 32.3 °F 22.6 °F 50% 30.22 in 10.0 mi West 12.7 mph - N/A   Scattered Clouds
3:15 PM 36.7 °F 29.4 °F 21.7 °F 55% 30.23 in 10.0 mi West 10.4 mph - N/A   Scattered Clouds
3:35 PM 39.2 °F 32.5 °F 22.1 °F 50% 30.23 in 10.0 mi WSW 10.4 mph - N/A   Mostly Cloudy
3:55 PM 36.9 °F 30.1 °F 21.0 °F 53% 30.23 in 10.0 mi West 9.2 mph - N/A   Scattered Clouds
4:15 PM 36.7 °F 29.9 °F 20.1 °F 51% 30.23 in 10.0 mi West 9.2 mph - N/A   Clear
4:35 PM 36.7 °F 29.9 °F 19.2 °F 49% 30.23 in 10.0 mi West 9.2 mph - N/A   Clear
5:15 PM 36.0 °F 29.0 °F 18.7 °F 50% 30.23 in 10.0 mi West 9.2 mph - N/A   Clear
5:35 PM 34.9 °F 29.0 °F 18.5 °F 51% 30.24 in 10.0 mi West 6.9 mph - N/A   Clear
5:55 PM 33.4 °F 27.3 °F 18.7 °F 55% 30.24 in 10.0 mi West 6.9 mph - N/A   Clear
6:15 PM 32.2 °F 25.8 °F 18.5 °F 57% 30.24 in 10.0 mi West 6.9 mph - N/A   Clear
6:35 PM 32.0 °F 26.4 °F 18.5 °F 58% 30.25 in 10.0 mi West 5.8 mph - N/A   Clear
6:55 PM 31.6 °F 27.0 °F 18.5 °F 58% 30.25 in 10.0 mi West 4.6 mph - N/A   Clear
7:15 PM 31.3 °F 25.6 °F 18.5 °F 59% 30.26 in 10.0 mi West 5.8 mph - N/A   Clear
7:35 PM 30.7 °F 27.3 °F 19.0 °F 62% 30.27 in 10.0 mi West 3.5 mph - N/A   Clear
7:55 PM 30.9 °F 24.3 °F 18.5 °F 60% 30.28 in 10.0 mi West 6.9 mph - N/A   Clear
8:15 PM 30.0 °F 23.2 °F 18.9 °F 63% 30.29 in 10.0 mi West 6.9 mph - N/A   Clear
8:35 PM 29.7 °F 22.8 °F 18.0 °F 62% 30.29 in 10.0 mi West 6.9 mph - N/A   Clear
8:55 PM 29.3 °F 23.2 °F 17.2 °F 61% 30.29 in 10.0 mi West 5.8 mph - N/A   Clear
9:15 PM 28.6 °F 22.4 °F 16.9 °F 62% 30.31 in 10.0 mi West 5.8 mph - N/A   Clear
9:35 PM 28.2 °F 22.0 °F 16.5 °F 62% 30.32 in 10.0 mi West 5.8 mph - N/A   Clear
9:55 PM 27.3 °F 20.9 °F 16.7 °F 64% 30.32 in 10.0 mi West 5.8 mph - N/A   Clear
10:35 PM 27.5 °F 20.2 °F 16.5 °F 63% 30.33 in 10.0 mi West 6.9 mph - N/A   Clear
11:15 PM 27.1 °F 19.7 °F 16.0 °F 63% 30.34 in 10.0 mi West 6.9 mph - N/A   Clear
11:35 PM 27.0 °F 18.7 °F 15.1 °F 61% 30.34 in 10.0 mi West 8.1 mph - N/A   Clear
11:55 PM 26.4 °F 19.8 °F 14.9 °F 62% 30.34 in 10.0 mi West 5.8 mph - N/A   Clear